Tracking 19288 objects as of 20-Nov-2018
HD Live streaming from Space Station
objects crossing your sky now

UFO 1 (USA 98)

Track UFO 1 (USA 98) now!
UFO 1 (USA 98) is classified as:


NORAD ID: 22563
Int'l Code: 1993-015A
Perigee: 36,052.3 km
Apogee: 36,113.5 km
Inclination: 19.5 °
Period: 1,450.9 minutes
Semi major axis: 42453 km
RCS: 8.2516 m2 (large)
Launch date: March 25, 1993
Source: United States (US)
Launch site: AIR FORCE EASTERN TEST RANGE (AFETR)
aabbcc
Your satellite tracking list
Your tracking list is empty




NASA's NSSDC Master Catalog

Two Line Element Set (TLE):
1 22563U 93015A   18323.49435124  .00000075  00000-0  00000+0 0  9996
2 22563  19.4593 119.4612 0007203 159.7038 213.3894  0.99249111 97372
Source of the keplerian elements: AFSPC